Regional Weather Roundup
Issued by NWS Jackson, KY

Home | Current Version | Previous Version | Graphics & Text | Print | Product List | Glossary On
Versions: 1 2 3 4 5 6 7 8 9 10 11 12 13 14 15 16 17 18 19 20 21 22 23 24 25 26 27 28
000
ASUS43 KJKL 221810
RWRJKL

EAST KENTUCKY HOURLY WEATHER ROUNDUP
NATIONAL WEATHER SERVICE JACKSON KY
200 PM EDT FRI JUL 22 2016

NOTE: "FAIR" INDICATES FEW OR NO CLOUDS BELOW 12,000 FEET WITH
NO SIGNIFICANT WEATHER AND/OR OBSTRUCTIONS TO VISIBILITY.

* THESE REPORTS ARE NOT UNDER NWS QUALITY CONTROL AND MAY NOT
  REPORT WEATHER SUCH AS PRECIPITATION AND FOG.

KYZ079-080-083-085-087-088-110-112-115-119-120-221900
...EASTERN KENTUCKY...

CITY           SKY/WX    TMP DP  RH WIND       PRES   REMARKS
JACKSON        CLOUDY    87  69  54 VRB3      30.13F HX  91
6HR MIN TEMP:  69; 6HR MAX TEMP:  89;

LONDON         CLOUDY    87  68  52 CALM      30.13R HX  90
6HR MIN TEMP:  69; 6HR MAX TEMP:  89;

SOMERSET*      CLOUDY    86  68  54 W6        30.12F
MONTICELLO*    CLOUDY   N/A N/A N/A W7        30.13S
WILLIAMSBURG*  CLOUDY    88  72  58 NW6       30.13S HX  94
MIDDLESBORO*   PTSUNNY   89  71  55 NW3       30.12F HX  95
6HR MIN TEMP:  68; 6HR MAX TEMP:  90;

HARLAN APT*    CLOUDY    88  64  45 W3        30.14F
PIKE CO APT*     N/A     87  70  56 W7        30.14F HX  91
BIG SANDY APT* CLEAR     89  70  54 SW3       30.12F HX  93
6HR MIN TEMP:  71; 6HR MAX TEMP:  89;

MOREHEAD APT*  MOCLDY    86  72  62 SW5       30.12S HX  92
ASHLAND*       PTSUNNY   90  75  62 W6        30.05S HX 100
$$

KYZ035-036-041-042-044-050-067-078-099-221900
...CENTRAL KENTUCKY...

CITY           SKY/WX    TMP DP  RH WIND       PRES   REMARKS
MT STERLING*   CLOUDY    86  73  66 W5        30.12S HX  93
FLEMING/MASON* CLOUDY    87  75  67 SW5       30.11S HX  96
DANVILLE*      CLOUDY    88  72  58 CALM      30.12S HX  94
RICHMOND*      CLOUDY    86  70  58 CALM      30.11S HX  90
LEXINGTON      CLOUDY    88  74  63 W7        30.11S HX  96
6HR MIN TEMP:  76; 6HR MAX TEMP:  88;

FRANKFORT      MOSUNNY   85  74  69 W8        30.09R HX  92
6HR MIN TEMP:  77; 6HR MAX TEMP:  86;

LOUISVILLE     CLOUDY    87  72  60 W5        30.07S HX  93
6HR MIN TEMP:  80; 6HR MAX TEMP:  87; 6HR PCP: TRACE;

LEBANON*         N/A     90  75  62 W7        30.10F HX 100
GLASGOW*       PTSUNNY   90  74  59 CALM      30.09F HX  99
BOWLING GREEN  PTSUNNY   90  76  63 VRB5      30.07F HX 101
6HR MIN TEMP:  78; 6HR MAX TEMP:  90;

$$

KYZ091>093-OHZ055-061-077-WVZ005-015-034-035-042-221900
...SOUTHERN OHIO/WEST VIRGINIA...

CITY           SKY/WX    TMP DP  RH WIND       PRES   REMARKS
COVINGTON      CLOUDY    84  75  74 W3        30.09R HX  92
COLUMBUS       CLOUDY    73  71  93 S12       30.08S
DAYTON         CLOUDY    77  73  87 S9        30.09R
WILMINGTON     CLOUDY    72  70  93 SE7       30.11S
HUNTINGTON     PTSUNNY   89  71  55 CALM      30.08S HX  95
CHARLESTON     PTSUNNY   89  68  49 VRB3      30.09S HX  93
PINEVILLE*       N/A     90  56  31 MISG      30.20F
BECKLEY          N/A     83  63  50 N6        30.19S
BLUEFIELD        N/A     81  60  48 N8        30.22S
LOGAN CO APT*    N/A     86  68  54 CALM      30.14S
$$

VAZ002-007-008-TNZ017-027-036-066-071-221900
...SOUTHWEST VIRGINIA/EAST TENNESSEE...

CITY           SKY/WX    TMP DP  RH WIND       PRES   REMARKS
WISE*            N/A     84  54  34 NW5       30.23S
JONESVILLE*      N/A     88  68  51 CALM      30.16S HX  91
ABINGDON*        N/A     86  65  49 NW3       30.18F
BRISTOL        MOSUNNY   90  67  46 MISG      30.14F HX  93
MORRISTOWN*    PTCLDY    88  70  55 CALM      30.12S HX  92
SEVIERVILLE*     N/A     91  68  46 NW6       30.10R HX  95
KNOXVILLE      PTSUNNY   91  70  49 W5        30.10S HX  96
OAK RIDGE      MOSUNNY   92  71  50 W6        30.11S HX  98
CROSSVILLE     MOSUNNY   85  69  58 VRB5      30.17F
NASHVILLE      CLOUDY    93  71  48 N9        30.09S HX 100
$$

...KEY TO REMARKS...
VSB - VISIBILITY IN MILES
WCI - WIND CHILL INDEX
HX  - HEAT INDEX

$$




USA.gov is the U.S. government's official web portal to all federal, state and local government web resources and services.